Waarnemingen

Advertentie
Mijn weer
Wick Airport (AWS), Groot Brittannië (3075): temperatuur & dauwpunt: 07.12.2017 03:00:00 - 13.12.2017 03:00:00 (GMT)Wick Airport (AWS), Groot Brittannië (3075): temperatuur -20cm: 07.12.2017 03:00:00 - 13.12.2017 03:00:00 (GMT)Wick Airport (AWS), Groot Brittannië (3075): windsnelheid & windstoten: 07.12.2017 03:00:00 - 13.12.2017 03:00:00 (GMT)Wick Airport (AWS), Groot Brittannië (3075): windrichting: 07.12.2017 03:00:00 - 13.12.2017 03:00:00 (GMT)Wick Airport (AWS), Groot Brittannië (3075): luchtdruk: 07.12.2017 03:00:00 - 13.12.2017 03:00:00 (GMT)Wick Airport (AWS), Groot Brittannië (3075): zicht: 07.12.2017 03:00:00 - 13.12.2017 03:00:00 (GMT)Wick Airport (AWS), Groot Brittannië (3075): neerslag: 07.12.2017 03:00:00 - 13.12.2017 03:00:00 (GMT)
Datum & Tijd tt [°C] td [°C] tt -20cm [°C] ff [km/u] ff [kn] fx [km/u] fx [kn] dd ppp [hPa] vv [km] rr [mm]
13.12.2017 03:00:00 2,6 0,2 - 16 9 - - ZZW 986,4 45 0,0
13.12.2017 02:00:00 2,6 0,7 - 21 11 - - ZW 987,0 40 0,0
13.12.2017 01:00:00 2,2 0,8 - 18 10 - - ZW 987,5 45 0,0
13.12.2017 00:00:00 2,6 1,1 - 16 9 - - ZW 987,9 50 0,0
12.12.2017 23:00:00 3,3 2,0 - 15 8 - - Z 988,3 40 0,4
12.12.2017 22:00:00 3,0 2,0 - 24 13 - - Z 988,9 45 1,8
12.12.2017 21:00:00 2,6 1,5 - 24 13 - - ZZW 990,0 4,0 1,2
12.12.2017 20:00:00 4,1 1,2 - 22 12 - - Z 990,9 50 0,4
12.12.2017 19:00:00 4,4 1,5 - 21 11 - - Z 991,8 40 0,2
12.12.2017 18:00:00 4,4 1,4 - 18 10 - - Z 992,8 30 0,2
12.12.2017 17:00:00 3,7 1,7 - 21 11 - - Z 993,9 40 0,0
12.12.2017 16:00:00 2,8 1,5 - 15 8 - - Z 994,8 50 0,2
12.12.2017 15:00:00 3,0 1,3 - 15 8 - - Z 995,7 30 0,0
12.12.2017 14:00:00 2,8 -0,8 - 11 6 - - Z 996,8 29 0,0
12.12.2017 13:00:00 3,2 -1,1 - 11 6 - - ZZW 997,8 40 0,0
12.12.2017 12:00:00 1,7 -1,4 - 5 3 - - ZW 998,2 30 0,0
12.12.2017 11:00:00 0,9 -1,4 - 13 7 - - WZW 998,8 40 0,0
12.12.2017 10:00:00 1,0 -0,7 - 11 6 - - W 999,0 35 0,0
12.12.2017 09:00:00 1,2 -0,5 4,0 11 6 - - WZW 998,9 45 0,2
12.12.2017 08:00:00 2,4 1,6 - 4 2 - - WZW 998,8 9 0,4
12.12.2017 07:00:00 2,0 1,2 - 13 7 - - WNW 998,8 29 0,6
12.12.2017 06:00:00 1,9 1,2 - 13 7 - - W 998,8 30 0,2
12.12.2017 05:00:00 2,1 1,4 - 15 8 - - W 998,6 30 0,2
12.12.2017 04:00:00 2,9 1,8 - 26 14 - - NW 998,4 8 1,8
12.12.2017 03:00:00 2,6 1,4 - 28 15 - - WNW 998,8 3,4 0,8
12.12.2017 02:00:00 2,4 1,6 - 22 12 - - W 998,1 30 0,0
12.12.2017 01:00:00 2,2 1,2 - 18 10 - - W 997,8 14 0,0
12.12.2017 00:00:00 0,7 -0,2 - 21 11 - - W 997,5 28 0,0
11.12.2017 23:00:00 0,5 -0,4 - 13 7 - - WZW 997,2 45 0,0
11.12.2017 22:00:00 0,7 -0,4 - 13 7 - - NW 997,5 30 0,0
11.12.2017 21:00:00 0,0 -0,6 - 13 7 - - WZW 997,6 50 0,0
11.12.2017 20:00:00 -0,2 -0,6 - 11 6 - - W 997,4 40 0,0
11.12.2017 19:00:00 0,0 -0,7 - 15 8 - - W 996,7 35 0,0
11.12.2017 18:00:00 0,7 -0,1 - 5 3 - - WZW 996,0 35 0,0
11.12.2017 17:00:00 0,3 -0,5 - 11 6 - - W 995,3 26 0,0
11.12.2017 16:00:00 0,1 -1,2 - 13 7 - - NW 994,6 45 0,2
11.12.2017 15:00:00 1,5 0,4 - 11 6 - - NNW 993,7 27 0,0
11.12.2017 14:00:00 2,5 1,7 - 16 9 - - NNW 992,6 30 0,0
11.12.2017 13:00:00 2,5 1,5 - 16 9 - - NW 992,0 35 0,6
11.12.2017 12:00:00 1,5 0,0 - 16 9 - - NW 991,3 23 2,6
11.12.2017 11:00:00 2,4 1,4 - 21 11 - - NNW 990,5 40 0,0
11.12.2017 10:00:00 1,7 0,6 - 18 10 - - NNW 989,5 40 0,0
11.12.2017 09:00:00 1,7 1,4 4,2 - - - - - 988,5 13 0,0
11.12.2017 08:00:00 0,8 0,6 - 13 7 - - W 987,3 45 0,0
11.12.2017 07:00:00 1,1 0,5 - 8 4 - - WZW 986,5 40 0,0
11.12.2017 06:00:00 0,2 0,1 - 9 5 - - W 985,5 23 0,0
11.12.2017 05:00:00 -0,3 -0,5 - 13 7 - - W 984,8 45 0,0
11.12.2017 04:00:00 0,2 0,1 - 11 6 - - W 984,3 50 0,0
11.12.2017 03:00:00 -0,2 -0,3 - 13 7 - - WZW 983,5 50 0,0
11.12.2017 02:00:00 -0,5 -0,5 - 16 9 - - W 982,8 45 0,0
11.12.2017 01:00:00 -0,1 -0,2 - 15 8 - - W 982,1 50 0,0
11.12.2017 00:00:00 0,9 0,9 - 15 8 - - NW 982,0 2,7 0,0
10.12.2017 23:00:00 0,5 0,3 - 18 10 - - W 980,9 50 0,0
10.12.2017 22:00:00 0,3 0,1 - 18 10 - - W 980,3 50 0,0
10.12.2017 21:00:00 1,0 0,7 - 16 9 - - W 979,7 45 0,0
10.12.2017 20:00:00 1,0 0,8 - 22 12 - - WZW 979,4 40 0,0
10.12.2017 19:00:00 0,8 0,5 - 28 15 - - W 979,2 35 0,0
10.12.2017 18:00:00 1,0 0,5 - 28 15 - - W 978,7 50 0,0
10.12.2017 17:00:00 0,8 0,6 - 28 15 - - W 978,5 45 0,0
10.12.2017 16:00:00 0,8 0,4 - 28 15 - - W 978,5 50 0,0
10.12.2017 15:00:00 0,9 0,5 - 28 15 - - W 978,5 40 0,0
10.12.2017 14:00:00 1,0 0,3 - 31 17 - - W 979,2 35 0,0
10.12.2017 13:00:00 1,2 0,3 - 18 10 - - WZW 979,8 35 0,0
10.12.2017 12:00:00 1,0 0,1 - 24 13 - - W 980,4 45 0,0
10.12.2017 11:00:00 -0,5 -1,4 - 22 12 - - W 981,2 50 0,0
10.12.2017 10:00:00 -1,6 -2,3 - 21 11 - - WZW 982,2 40 0,0
10.12.2017 09:00:00 -1,5 -1,9 4,5 21 11 - - WZW 983,3 40 0,0
10.12.2017 08:00:00 -2,2 -2,5 - 22 12 - - W 984,1 40 0,0
10.12.2017 07:00:00 -2,6 -2,8 - 24 13 - - W 985,2 35 0,0
10.12.2017 06:00:00 -3,1 -3,5 - 21 11 - - W 986,3 40 0,0
10.12.2017 05:00:00 -2,6 -3,1 - 16 9 - - W 987,7 24 0,0
10.12.2017 04:00:00 -2,8 -3,5 - 13 7 - - W 989,5 35 0,0
10.12.2017 03:00:00 -1,1 -1,5 - 18 10 - - W 991,0 2,1 0,0
10.12.2017 02:00:00 -2,3 -2,5 - 18 10 - - WZW 992,2 45 0,0
10.12.2017 01:00:00 -2,0 -2,1 - 22 12 - - W 993,3 45 0,0
10.12.2017 00:00:00 -2,7 -2,9 - 13 7 - - WZW 994,8 28 0,0
09.12.2017 23:00:00 -1,4 -1,5 - 11 6 - - ZW 996,0 50 0,0
09.12.2017 22:00:00 -0,7 -0,7 - 11 6 - - WZW 997,2 2,3 0,0
09.12.2017 21:00:00 -0,3 -0,4 - 15 8 - - WNW 998,5 1,5 0,0
09.12.2017 20:00:00 -0,7 -0,9 - 11 6 - - W 999,7 24 0,0
09.12.2017 19:00:00 -0,5 -1,0 - 22 12 - - W 1000,9 2,5 0,0
09.12.2017 18:00:00 -0,3 -1,1 - 29 16 - - W 1001,5 13 0,0
09.12.2017 17:00:00 0,1 -4,8 - 18 10 - - WNW 1002,1 35 0,0
09.12.2017 16:00:00 0,6 -3,7 - 21 11 - - WNW 1002,9 35 0,0
09.12.2017 15:00:00 0,3 -3,3 - 26 14 - - WNW 1003,8 40 0,0
09.12.2017 14:00:00 0,4 -1,8 - 37 20 50 27 WNW 1004,9 2,7 0,0
09.12.2017 13:00:00 1,1 -2,3 - 26 14 - - WNW 1005,6 30 0,0
09.12.2017 12:00:00 0,8 -2,0 - 26 14 - - NW 1006,4 35 0,0
09.12.2017 11:00:00 1,1 -1,3 - 22 12 55 30 WNW 1007,1 35 0,0
09.12.2017 10:00:00 0,8 -1,2 - 22 12 - - WNW 1008,2 6 0,0
09.12.2017 09:00:00 -0,5 -1,7 4,9 13 7 - - W 1008,4 30 0,0
09.12.2017 08:00:00 -0,2 -1,2 - 26 14 54 29 NW 1009,1 1,2 0,0
09.12.2017 07:00:00 -0,2 -0,5 - 22 12 65 35 WNW 1009,1 15 0,0
09.12.2017 06:00:00 0,8 -0,8 - 26 14 46 25 WNW 1009,7 35 0,0
09.12.2017 05:00:00 0,4 -0,4 - 28 15 59 32 WNW 1009,9 18 0,0
09.12.2017 04:00:00 0,4 -0,3 - 34 18 57 31 NW 1010,2 30 0,2
09.12.2017 03:00:00 1,0 -1,2 - 26 14 52 28 NW 1010,7 40 0,2
09.12.2017 02:00:00 1,2 -0,1 - 29 16 54 29 NW 1011,0 18 0,0
09.12.2017 01:00:00 1,7 -2,1 - 31 17 - - WNW 1011,0 50 0,2
09.12.2017 00:00:00 2,3 -1,0 - 26 14 54 29 NW 1011,2 45 0,0
08.12.2017 23:00:00 2,2 -0,4 - 28 15 - - NW 1011,0 35 0,0
08.12.2017 22:00:00 1,9 0,8 - 29 16 61 33 NNW 1011,3 15 0,0
08.12.2017 21:00:00 1,5 -0,1 - 39 21 63 34 WNW 1010,5 50 1,4
08.12.2017 20:00:00 1,6 0,2 - 35 19 61 33 NW 1010,5 6 0,6
08.12.2017 19:00:00 2,4 0,4 - 42 23 70 38 NW 1010,1 12 0,0
08.12.2017 18:00:00 2,7 1,1 - 44 24 80 43 NW 1008,4 16 0,2
08.12.2017 17:00:00 3,3 -0,3 - 50 27 72 39 NW 1007,5 15 0,0
08.12.2017 16:00:00 2,9 -1,3 - 50 27 67 36 NW 1006,8 21 0,0
08.12.2017 15:00:00 2,6 -1,1 - 50 27 68 37 NW 1006,6 15 0,0
08.12.2017 14:00:00 2,4 -1,7 - 52 28 72 39 NW 1006,2 29 0,0
08.12.2017 13:00:00 2,4 -2,0 - 50 27 74 40 NW 1005,7 23 0,2
08.12.2017 12:00:00 1,8 -1,5 - 46 25 74 40 NW 1005,4 20 0,2
08.12.2017 11:00:00 1,4 -2,4 - 44 24 70 38 WNW 1005,0 35 0,2
08.12.2017 10:00:00 1,3 -3,7 - 42 23 81 44 NW 1005,0 29 0,0
08.12.2017 09:00:00 1,1 -1,5 5,7 39 21 61 33 NW 1004,7 17 0,0
08.12.2017 08:00:00 0,2 -1,3 - 46 25 68 37 NW 1004,3 3,5 0,0
08.12.2017 07:00:00 0,7 -1,2 - 48 26 76 41 WNW 1003,6 6 0,2
08.12.2017 06:00:00 1,3 0,0 - 24 13 81 44 NW 1002,2 5 0,4
08.12.2017 05:00:00 0,6 0,0 - 57 31 80 43 NNW 1001,5 4,7 0,6
08.12.2017 04:00:00 0,3 -0,1 - 57 31 80 43 NW 1001,0 1,1 0,2
08.12.2017 03:00:00 1,4 -1,4 - 48 26 68 37 WNW 1000,0 30 0,0
08.12.2017 02:00:00 1,2 -3,3 - 46 25 70 38 WNW 1000,1 30 0,0
08.12.2017 01:00:00 0,9 -2,3 - 48 26 65 35 WNW 999,8 20 0,0
08.12.2017 00:00:00 1,2 -1,6 - 39 21 85 46 WNW 999,1 18 0,0
07.12.2017 23:00:00 1,1 -1,1 - 42 23 78 42 WNW 998,8 16 0,0
07.12.2017 22:00:00 1,7 -1,6 - 54 29 78 42 NW 997,1 6 0,0
07.12.2017 21:00:00 2,7 -1,0 - 46 25 72 39 NW 996,7 15 0,0
07.12.2017 20:00:00 2,7 -0,1 - 54 29 83 45 WNW 995,4 14 0,2
07.12.2017 19:00:00 3,6 -0,3 - 48 26 87 47 WNW 994,3 15 0,2
07.12.2017 18:00:00 3,8 -0,2 - 59 32 89 48 WNW 993,1 10 0,0
07.12.2017 17:00:00 3,9 0,5 - 57 31 107 58 WNW 991,4 9 0,2
07.12.2017 16:00:00 3,0 1,9 - 74 40 107 58 WNW 989,7 9 0,6
07.12.2017 15:00:00 3,4 2,1 - 74 40 113 61 WNW 987,4 6 0,6
07.12.2017 14:00:00 3,9 2,8 - 80 43 117 63 WNW 984,8 6 0,4
07.12.2017 13:00:00 4,4 3,8 - 81 44 119 64 WNW 981,7 7 0,6
07.12.2017 12:00:00 4,7 4,1 - 78 42 119 64 W 979,0 2,9 0,4
07.12.2017 11:00:00 4,7 4,1 - 76 41 111 60 W 977,1 6 1,4
07.12.2017 10:00:00 4,6 3,0 - 89 48 119 64 WZW 974,4 4,3 0,2
07.12.2017 09:00:00 4,8 2,3 6,4 68 37 106 57 WZW 975,7 7 0,0
07.12.2017 08:00:00 5,4 2,5 - 68 37 96 52 WZW 976,0 50 0,2
07.12.2017 07:00:00 6,1 4,1 - 59 32 81 44 ZW 976,0 4,0 0,2
07.12.2017 06:00:00 5,9 1,2 - 50 27 80 43 ZZW 977,5 22 0,0
07.12.2017 05:00:00 4,9 0,5 - 31 17 78 42 ZZW 980,7 21 0,0
07.12.2017 04:00:00 6,1 4,0 - 35 19 55 30 WZW 982,9 16 0,2
07.12.2017 03:00:00 8,1 6,7 - 31 17 48 26 W 982,6 45 0,0

tt = temperatuur
td = dauwpunt
tt -20cm = temperatuur -20cm
ff = windsnelheid
fx = windstoten
dd = windrichting
ppp = luchtdruk
vv = zicht
rr = neerslag

Weerstations in de omgeving